Home   Weather   Road Town   Past weeks

Flag for British Virgin Islands Past Weather in Road Town, Tortola, British Virgin Islands — Yesterday and Last 2 Weeks

Now
76 °F

Clear.


Feels Like: 76 °F
Forecast: 76 / 80 °F
Wind: 7 mph from East

Location: Cyril E. King International Airport

Current Time: Jan 20, 2018 at 3:44:41 am

Latest Report: Jan 20, 2018 at 2:53 am


Visibility: 10 mi

Pressure: 30.02 "Hg

Humidity: 88%

Dew Point: 72 °F

Location of Road TownLocation

Past Weather in Road Town — Graph

°F

Road Town Temperature Yesterday

Maximum temperature yesterday: 82 °F (at 11:53 am)
Minimum temperature yesterday: 75 °F (at 5:53 am)
Average temperature yesterday: 79 °F

High & Low Weather Summary for the Past Weeks

 TemperatureHumidityPressure
High85 °F (Jan 16, 12:53 pm)100% (Jan 5, 7:29 am)30.11 "Hg (Jan 5, 7:29 am)
Low74 °F (Jan 9, 12:53 am)60% (Jan 8, 12:53 pm)29.94 "Hg (Jan 15, 3:53 am)
Average79 °F84%30.02 "Hg
* Reported Jan 5 1:53 am — Jan 20 1:53 am, Road Town. Weather by CustomWeather, © 2018

Note: Actual official high and low records may vary slightly from our data, if they occured in-between our weather recording intervals... More about our weather records

Advertising

Road Town Weather History for the Previous 24 Hours

Scroll right to see more
 ConditionsComfort  
Time TempWeatherWind HumidityBarometerVisibility
1:53 am
Sat, Jan 20
76 °FClear.9 mph85%30.03 "Hg10 mi
12:53 am77 °FClear.8 mph85%30.05 "Hg10 mi
11:53 pm
Fri, Jan 19
77 °FClear.7 mph85%30.06 "Hg10 mi
10:53 pm77 °FClear.10 mph88%30.06 "Hg10 mi
9:53 pm77 °FClear.9 mph90%30.06 "Hg10 mi
8:53 pm77 °FClear.9 mph88%30.05 "Hg10 mi
7:53 pm78 °FClear.8 mph87%30.04 "Hg10 mi
6:53 pm78 °FClear.9 mph82%30.02 "Hg10 mi
6:07 pm79 °FPassing clouds.9 mph82%30.01 "Hg10 mi
5:53 pm79 °FPassing clouds.9 mph82%30.01 "Hg10 mi
4:53 pm81 °FPassing clouds.10 mph77%30.01 "Hg10 mi
3:53 pm82 °FScattered clouds.8 mph77%30.01 "Hg10 mi
2:53 pm82 °FScattered clouds.13 mph74%30.02 "Hg10 mi
1:53 pm82 °FScattered clouds.10 mph77%30.03 "Hg10 mi
12:53 pm82 °FScattered clouds.12 mph79%30.05 "Hg10 mi
11:53 am82 °FPassing clouds.12 mph79%30.07 "Hg10 mi
11:19 am81 °FPassing clouds.10 mph82%30.08 "Hg10 mi
10:53 am81 °FPassing clouds.9 mph85%30.09 "Hg10 mi
9:53 am78 °FLight rain. Fog.6 mph90%30.09 "Hg6 mi
9:38 am76 °FRain. Fog.9 mph97%30.09 "Hg2 mi
9:12 am80 °FPartly sunny.6 mph85%30.07 "Hg10 mi
8:53 am80 °FPassing clouds.7 mph85%30.06 "Hg10 mi
8:29 am79 °FPassing clouds.8 mph88%30.06 "Hg10 mi
7:53 am78 °FSunny.5 mph90%30.04 "Hg10 mi
5:53 am75 °FClear.6 mph94%30.00 "Hg10 mi
Weather by CustomWeather, © 2018

See weather overview